| time (UTC) | temp C | wind direction | speed KPH | gust KPH | rain 1hr cm | rain 24hr cm | rain mn cm | humidity % | barometer mb |
| 20260506035837 | 8 | 270 | 0.0 | 1.6 | 0.00 | 0.00 | 0.00 | 65 | 1014.9 |
| 20260506034836 | 8 | 270 | 1.6 | 3.2 | 0.00 | 0.00 | 0.00 | 64 | 1015.2 |
| 20260506033835 | 8 | 270 | 0.0 | 0.0 | 0.00 | 0.00 | 0.00 | 63 | 1014.6 |
| 20260506032835 | 8 | 270 | 0.0 | 0.0 | 0.00 | 0.00 | 0.00 | 63 | 1014.2 |
| 20260506030005 | 8 | 270 | 0.0 | 0.0 | 0.00 | 0.00 | 0.00 | 61 | 1013.5 |
| 20260506025004 | 8 | 270 | 0.0 | 0.0 | 0.00 | 0.00 | 0.00 | 60 | 1013.2 |
| 20260506024004 | 8 | 270 | 0.0 | 0.0 | 0.00 | 0.00 | 0.00 | 59 | 1012.5 |
| 20260506023002 | 9 | 270 | 0.0 | 0.0 | 0.00 | 0.00 | 0.00 | 59 | 1012.2 |
| 20260506022001 | 9 | 270 | 0.0 | 0.0 | 0.00 | 0.00 | 0.00 | 59 | 1011.9 |
| 20260506021216 | 9 | 270 | 0.0 | 0.0 | 0.00 | 0.00 | 0.00 | 58 | 1011.9 |
| 20260506021000 | 9 | 270 | 0.0 | 0.0 | 0.00 | 0.00 | 0.00 | 58 | 1011.9 |
| 20260506015147 | 10 | 270 | 0.0 | 0.0 | 0.00 | 0.00 | 0.00 | 56 | 1011.9 |
| 20260506014146 | 10 | 315 | 0.0 | 4.8 | 0.00 | 0.00 | 0.00 | 54 | 1011.9 |
| 20260506012144 | 11 | 270 | 0.0 | 0.0 | 0.00 | 0.00 | 0.00 | 52 | 1011.2 |
| 20260506011143 | 11 | 293 | 0.0 | 0.0 | 0.00 | 0.00 | 0.00 | 51 | 1011.5 |
| 20260506010142 | 11 | 270 | 6.4 | 14.5 | 0.00 | 0.00 | 0.00 | 51 | 1011.5 |
| 20260506005141 | 11 | 270 | 4.8 | 12.9 | 0.00 | 0.00 | 0.00 | 50 | 1011.2 |
| 20260506004140 | 11 | 270 | 8.0 | 9.7 | 0.00 | 0.00 | 0.00 | 50 | 1011.2 |
| 20260506002138 | 12 | 293 | 1.6 | 14.5 | 0.00 | 0.00 | 0.00 | 50 | 1010.8 |
| 20260506001137 | 12 | 270 | 0.0 | 4.8 | 0.00 | 0.00 | 0.00 | 50 | 1011.2 |
| 20260506000136 | 12 | 248 | 8.0 | 12.9 | 0.00 | 0.00 | 0.00 | 50 | 1011.2 |
| 20260505235135 | 12 | 338 | 4.8 | 9.7 | 0.00 | 0.00 | 0.00 | 50 | 1011.2 |
| 20260505234134 | 12 | 270 | 6.4 | 19.3 | 0.00 | 0.00 | 0.00 | 50 | 1011.2 |
| 20260505233133 | 13 | 270 | 6.4 | 12.9 | 0.00 | 0.00 | 0.00 | 50 | 1011.2 |
| 20260505232132 | 13 | 270 | 4.8 | 9.7 | 0.00 | 0.00 | 0.00 | 51 | 1011.2 |
| 20260505231132 | 13 | 293 | 8.0 | 11.3 | 0.00 | 0.00 | 0.00 | 53 | 1011.2 |
| 20260505230130 | 12 | 270 | 3.2 | 6.4 | 0.00 | 0.00 | 0.00 | 54 | 1010.8 |
| 20260505225129 | 13 | 270 | 6.4 | 20.9 | 0.00 | 0.00 | 0.00 | 54 | 1011.5 |
| 20260505224129 | 13 | 248 | 11.3 | 4.8 | 0.00 | 0.00 | 0.00 | 55 | 1011.5 |
| 20260505223127 | 13 | 270 | 6.4 | 11.3 | 0.00 | 0.00 | 0.00 | 56 | 1011.5 |
| 20260505222126 | 13 | 270 | 0.0 | 12.9 | 0.00 | 0.00 | 0.00 | 55 | 1011.5 |
| 20260505221125 | 13 | 315 | 6.4 | 16.1 | 0.00 | 0.00 | 0.00 | 53 | 1011.5 |
| 20260505220124 | 14 | 270 | 0.0 | 14.5 | 0.00 | 0.00 | 0.00 | 51 | 1011.5 |
| 20260505215123 | 15 | 293 | 3.2 | 11.3 | 0.00 | 0.00 | 0.00 | 49 | 1011.9 |
| 20260505214122 | 15 | 293 | 20.9 | 17.7 | 0.00 | 0.00 | 0.00 | 50 | 1011.2 |
| 20260505213122 | 15 | 270 | 4.8 | 9.7 | 0.00 | 0.00 | 0.00 | 50 | 1011.2 |
| 20260505212120 | 15 | 293 | 0.0 | 9.7 | 0.00 | 0.00 | 0.00 | 50 | 1011.5 |
| 20260505211120 | 16 | 225 | 0.0 | 16.1 | 0.00 | 0.00 | 0.00 | 48 | 1012.2 |
| 20260505203115 | 17 | 203 | 9.7 | 16.1 | 0.00 | 0.00 | 0.00 | 48 | 1011.9 |
| 20260505201114 | 17 | 248 | 6.4 | 16.1 | 0.00 | 0.00 | 0.00 | 50 | 1011.9 |
| 20260505200347 | 16 | 315 | 6.4 | 19.3 | 0.00 | 0.00 | 0.00 | 52 | 1011.9 |
| 20260505200112 | 16 | 315 | 6.4 | 19.3 | 0.00 | 0.00 | 0.00 | 52 | 1011.9 |
| 20260505195112 | 16 | 270 | 8.0 | 14.5 | 0.00 | 0.00 | 0.00 | 54 | 1011.9 |
| 20260505194110 | 16 | 270 | 6.4 | 11.3 | 0.00 | 0.00 | 0.00 | 53 | 1012.2 |
| 20260505193348 | 16 | 203 | 0.0 | 17.7 | 0.00 | 0.00 | 0.00 | 55 | 1012.2 |
| 20260505193109 | 16 | 203 | 0.0 | 17.7 | 0.00 | 0.00 | 0.00 | 55 | 1012.2 |
| 20260505191107 | 15 | 270 | 0.0 | 12.9 | 0.00 | 0.00 | 0.00 | 51 | 1012.5 |
| 20260505190106 | 16 | 270 | 14.5 | 24.1 | 0.00 | 0.00 | 0.00 | 47 | 1012.5 |
| 20260505185105 | 16 | 248 | 1.6 | 11.3 | 0.00 | 0.00 | 0.00 | 46 | 1012.5 |
| 20260505184104 | 17 | 293 | 4.8 | 19.3 | 0.00 | 0.00 | 0.00 | 45 | 1012.5 |
| 20260505183104 | 17 | 203 | 6.4 | 6.4 | 0.00 | 0.00 | 0.00 | 48 | 1012.2 |
| 20260505182102 | 16 | 248 | 9.7 | 8.0 | 0.00 | 0.00 | 0.00 | 48 | 1012.5 |
| 20260505181101 | 16 | 225 | 0.0 | 6.4 | 0.00 | 0.00 | 0.00 | 52 | 1012.5 |
| 20260505180355 | 15 | 158 | 0.0 | 3.2 | 0.00 | 0.00 | 0.00 | 53 | 1012.9 |
| 20260505180100 | 15 | 158 | 0.0 | 3.2 | 0.00 | 0.00 | 0.00 | 53 | 1012.9 |
| 20260505174058 | 13 | 248 | 0.0 | 4.8 | 0.00 | 0.00 | 0.00 | 55 | 1012.9 |
| 20260505172056 | 12 | 158 | 0.0 | 8.0 | 0.00 | 0.00 | 0.00 | 58 | 1012.9 |
| 20260505171055 | 11 | 315 | 0.0 | 0.0 | 0.00 | 0.00 | 0.00 | 60 | 1013.2 |
| 20260505170333 | 11 | 248 | 3.2 | 4.8 | 0.00 | 0.00 | 0.00 | 59 | 1013.2 |
| 20260505170054 | 11 | 248 | 3.2 | 4.8 | 0.00 | 0.00 | 0.00 | 59 | 1013.2 |
| 20260505165053 | 10 | 293 | 0.0 | 0.0 | 0.00 | 0.00 | 0.00 | 58 | 1013.2 |
| 20260505164053 | 10 | 270 | 0.0 | 0.0 | 0.00 | 0.00 | 0.00 | 59 | 1013.2 |
| 20260505163336 | 10 | 270 | 0.0 | 0.0 | 0.00 | 0.00 | 0.00 | 60 | 1013.5 |
| 20260505163052 | 10 | 270 | 0.0 | 0.0 | 0.00 | 0.00 | 0.00 | 60 | 1013.5 |
| 20260505162051 | 10 | 270 | 0.0 | 0.0 | 0.00 | 0.00 | 0.00 | 61 | 1013.5 |
| 20260505161049 | 10 | 270 | 0.0 | 3.2 | 0.00 | 0.00 | 0.00 | 62 | 1013.9 |
| 20260505153142 | 9 | 270 | 1.6 | 0.0 | 0.00 | 0.00 | 0.00 | 61 | 1013.9 |
| 20260505153045 | 9 | 270 | 1.6 | 0.0 | 0.00 | 0.00 | 0.00 | 61 | 1013.9 |
| 20260505152045 | 9 | 293 | 0.0 | 3.2 | 0.00 | 0.00 | 0.00 | 61 | 1013.9 |
| 20260505151043 | 9 | 270 | 0.0 | 0.0 | 0.00 | 0.00 | 0.00 | 61 | 1014.6 |
| 20260505150317 | 9 | 293 | 0.0 | 0.0 | 0.00 | 0.00 | 0.00 | 60 | 1014.6 |
| 20260505125029 | 9 | 270 | 0.0 | 0.0 | 0.00 | 0.00 | 0.00 | 47 | 1013.9 |
| 20260505124028 | 9 | 270 | 0.0 | 0.0 | 0.00 | 0.00 | 0.00 | 47 | 1014.2 |
| 20260505123343 | 9 | 270 | 0.0 | 0.0 | 0.00 | 0.00 | 0.00 | 47 | 1013.9 |
| 20260505123027 | 9 | 270 | 0.0 | 0.0 | 0.00 | 0.00 | 0.00 | 47 | 1013.9 |
| 20260505122133 | 9 | 270 | 0.0 | 4.8 | 0.00 | 0.00 | 0.00 | 46 | 1013.9 |
| 20260505122026 | 9 | 270 | 0.0 | 4.8 | 0.00 | 0.00 | 0.00 | 46 | 1013.9 |
| 20260505121026 | 9 | 270 | 0.0 | 6.4 | 0.00 | 0.00 | 0.00 | 46 | 1013.9 |
| 20260505120108 | 10 | 293 | 0.0 | 0.0 | 0.00 | 0.00 | 0.00 | 44 | 1013.9 |
| 20260505120025 | 10 | 293 | 0.0 | 0.0 | 0.00 | 0.00 | 0.00 | 44 | 1013.9 |
| 20260505115023 | 10 | 293 | 0.0 | 3.2 | 0.00 | 0.00 | 0.00 | 44 | 1013.5 |
| 20260505114022 | 10 | 315 | 0.0 | 4.8 | 0.00 | 0.00 | 0.00 | 44 | 1013.5 |
| 20260505113409 | 10 | 293 | 6.4 | 6.4 | 0.00 | 0.00 | 0.00 | 43 | 1013.9 |
| 20260505113021 | 10 | 293 | 6.4 | 6.4 | 0.00 | 0.00 | 0.00 | 43 | 1013.9 |
| 20260505112020 | 10 | 270 | 0.0 | 6.4 | 0.00 | 0.00 | 0.00 | 43 | 1013.5 |
| 20260505111020 | 10 | 315 | 0.0 | 6.4 | 0.00 | 0.00 | 0.00 | 43 | 1013.9 |
| 20260505110225 | 10 | 293 | 0.0 | 0.0 | 0.00 | 0.00 | 0.00 | 42 | 1013.9 |
| 20260505102014 | 10 | 293 | 0.0 | 0.0 | 0.00 | 0.00 | 0.00 | 39 | 1013.2 |
| 20260505100013 | 10 | 248 | 0.0 | 8.0 | 0.00 | 0.00 | 0.00 | 38 | 1013.5 |
| 20260505093010 | 10 | 248 | 16.1 | 20.9 | 0.00 | 0.00 | 0.00 | 39 | 1012.5 |
| 20260505092058 | 10 | 270 | 8.0 | 19.3 | 0.00 | 0.00 | 0.00 | 39 | 1012.5 |
| 20260505092009 | 10 | 270 | 8.0 | 19.3 | 0.00 | 0.00 | 0.00 | 39 | 1012.5 |
| 20260505091007 | 11 | 248 | 22.5 | 32.2 | 0.00 | 0.00 | 0.00 | 39 | 1012.5 |
| 20260505090007 | 11 | 293 | 19.3 | 24.1 | 0.00 | 0.00 | 0.00 | 38 | 1012.5 |
| 20260505085006 | 11 | 270 | 11.3 | 20.9 | 0.00 | 0.00 | 0.00 | 38 | 1012.9 |
| 20260505084005 | 11 | 270 | 17.7 | 22.5 | 0.00 | 0.00 | 0.00 | 37 | 1013.2 |
| 20260505083042 | 11 | 270 | 14.5 | 17.7 | 0.00 | 0.00 | 0.00 | 37 | 1013.2 |
| 20260505083003 | 11 | 270 | 14.5 | 17.7 | 0.00 | 0.00 | 0.00 | 37 | 1013.2 |
| 20260505082003 | 11 | 248 | 14.5 | 29.0 | 0.00 | 0.00 | 0.00 | 38 | 1013.2 |
| 20260505081001 | 11 | 248 | 19.3 | 24.1 | 0.00 | 0.00 | 0.00 | 38 | 1013.2 |
| 20260505080031 | 11 | 270 | 16.1 | 22.5 | 0.00 | 0.00 | 0.00 | 38 | 1013.5 |
| 20260505080000 | 11 | 270 | 16.1 | 22.5 | 0.00 | 0.00 | 0.00 | 38 | 1013.5 |
| 20260505075000 | 11 | 270 | 9.7 | 20.9 | 0.00 | 0.00 | 0.00 | 38 | 1013.5 |
| 20260505073958 | 11 | 248 | 16.1 | 19.3 | 0.00 | 0.00 | 0.00 | 38 | 1013.5 |
| 20260505072958 | 11 | 270 | 32.2 | 17.7 | 0.00 | 0.00 | 0.00 | 38 | 1013.5 |
| 20260505071956 | 12 | 248 | 8.0 | 16.1 | 0.00 | 0.00 | 0.00 | 38 | 1013.5 |
| 20260505070956 | 12 | 270 | 4.8 | 17.7 | 0.00 | 0.00 | 0.00 | 38 | 1013.5 |
| 20260505065955 | 12 | 293 | 0.0 | 16.1 | 0.00 | 0.00 | 0.00 | 38 | 1013.5 |
| 20260505064954 | 12 | 203 | 14.5 | 20.9 | 0.00 | 0.00 | 0.00 | 37 | 1013.5 |
| 20260505063953 | 12 | 225 | 11.3 | 22.5 | 0.00 | 0.00 | 0.00 | 37 | 1013.5 |
| 20260505062952 | 12 | 270 | 0.0 | 22.5 | 0.00 | 0.00 | 0.00 | 37 | 1013.5 |
| 20260505061951 | 12 | 270 | 3.2 | 20.9 | 0.00 | 0.00 | 0.00 | 36 | 1013.9 |
| 20260505060950 | 12 | 270 | 6.4 | 17.7 | 0.00 | 0.00 | 0.00 | 35 | 1013.9 |
| 20260505060410 | 13 | 270 | 0.0 | 17.7 | 0.00 | 0.00 | 0.00 | 35 | 1014.2 |
| 20260505060037 | 13 | 270 | 0.0 | 17.7 | 0.00 | 0.00 | 0.00 | 35 | 1014.2 |
| 20260505055949 | 13 | 270 | 0.0 | 17.7 | 0.00 | 0.00 | 0.00 | 35 | 1014.2 |
| 20260505054948 | 13 | 248 | 4.8 | 25.7 | 0.00 | 0.00 | 0.00 | 33 | 1013.9 |
| 20260505053947 | 13 | 270 | 0.0 | 9.7 | 0.00 | 0.00 | 0.00 | 33 | 1013.9 |
| 20260505053351 | 13 | 180 | 0.0 | 9.7 | 0.00 | 0.00 | 0.00 | 32 | 1013.9 |
| 20260505053030 | 13 | 180 | 0.0 | 9.7 | 0.00 | 0.00 | 0.00 | 32 | 1013.9 |
| 20260505052946 | 13 | 180 | 0.0 | 9.7 | 0.00 | 0.00 | 0.00 | 32 | 1013.9 |
| 20260505052032 | 13 | 248 | 11.3 | 14.5 | 0.00 | 0.00 | 0.00 | 31 | 1013.9 |
| 20260505051945 | 13 | 248 | 11.3 | 14.5 | 0.00 | 0.00 | 0.00 | 31 | 1013.9 |
| 20260505050241 | 14 | 270 | 0.0 | 22.5 | 0.00 | 0.00 | 0.00 | 30 | 1013.9 |
| 20260505040317 | 15 | 315 | 16.1 | 16.1 | 0.00 | 0.00 | 0.00 | 29 | 1013.9 |